map of MAA home
Great Circle Mapper logo
MAA - Airport
Location
City:  Chennai/Madras, India
Name:Meenambakkam
ICAO / IATA:VOMM / MAA

Details
Type:Airport (Aerodrome, Airfield)
Use:Public/Civil, International (customs port of entry)
Latitude:12°59'40"N (12.994414)
Longitude:80°10'50"E (80.180517)
Datum:WGS 1984
Elevation:52 ft (16 m)
Variation:1.6°W (WMM2010 magnetic declination)
Runways:2
Longest:12001 × 148 ft (3658 × 45 m), paved

Time
Time Zone:UTC+5:30
Local Time:

Weather
METAR:VOMM 230240Z 35004KT 1400 R07/1400 R25/1200 BR SCT020 25/23 Q1012 BECMG 1500 BR
TAF:VOMM 230300Z 2306/2412 04010KT 5000 HZ SCT020 SCT100
BECMG 2318/2320 00000KT 3000 HZ
TEMPO 2400/2403 1000 MIFG
BECMG 2405/2406 03010KT 6000

Related Locations
Nearby:
Farthest:SEII: 11410 mi / 18362 km
Puerto Villamil [General Villamil], Isabela Island, Galápagos Islands, EC

Find:

   beyond  
but within

Other Information
Maps:
NOTAMs:
Links:
Sources:

  
flag of India   

Sectional Chart

Flight Planning
at skyvector.com

Satellite Image

Google Maps Satellite View

 

Copyright © 2004-2014 Karl L. Swartz. All rights reserved.
The Great Circle Mapper name and logo are trademarks of the Great Circle Mapper.
All other trademarks mentioned herein belong to their respective owners.
Please see credits for attibutions and further copyright information.

  Follow gcmap on Facebook Follow gcmap on Twitter

hCard Microformat

Geo Microformat